| time (UTC) | temp F | wind direction | speed knots | gust knots | rain 1hr in | rain 24hr in | rain mn in | humidity % | barometer mb |
| 20260507014520 | 55 | 205 | 2.6 | 7.0 | 0.00 | 0.15 | 0.15 | 96 | 1005.5 |
| 20260507013023 | 55 | 204 | 4.3 | 6.1 | 0.00 | 0.15 | 0.15 | 95 | 1005.4 |
| 20260507011533 | 55 | 204 | 4.3 | 7.8 | 0.00 | 0.15 | 0.15 | 95 | 1005.0 |
| 20260507010019 | 55 | 200 | 1.7 | 10.4 | 0.00 | 0.15 | 0.15 | 95 | 1005.0 |
| 20260507004518 | 55 | 194 | 2.6 | 7.8 | 0.00 | 0.15 | 0.15 | 96 | 1005.4 |
| 20260507003017 | 55 | 196 | 3.5 | 7.8 | 0.00 | 0.15 | 0.15 | 96 | 1005.4 |
| 20260507001544 | 55 | 193 | 4.3 | 7.0 | 0.00 | 0.15 | 0.15 | 96 | 1005.4 |
| 20260507000017 | 55 | 193 | 1.7 | 6.1 | 0.00 | 0.15 | 0.15 | 96 | 1005.4 |
| 20260506234517 | 55 | 193 | 3.5 | 8.7 | 0.00 | 0.15 | 0.15 | 96 | 1005.2 |
| 20260506233018 | 55 | 207 | 2.6 | 7.8 | 0.00 | 0.15 | 0.15 | 96 | 1005.1 |
| 20260506231517 | 55 | 183 | 4.3 | 12.2 | 0.00 | 0.15 | 0.15 | 95 | 1005.1 |
| 20260506230014 | 55 | 200 | 3.5 | 8.7 | 0.00 | 0.15 | 0.15 | 95 | 1005.0 |
| 20260506224516 | 55 | 198 | 3.5 | 11.3 | 0.00 | 0.15 | 0.15 | 95 | 1005.0 |
| 20260506223012 | 55 | 187 | 2.6 | 11.3 | 0.00 | 0.15 | 0.15 | 95 | 1004.9 |
| 20260506221511 | 55 | 194 | 1.7 | 8.7 | 0.00 | 0.15 | 0.15 | 95 | 1004.9 |
| 20260506220011 | 55 | 205 | 3.5 | 13.0 | 0.01 | 0.15 | 0.15 | 95 | 1004.9 |
| 20260506214509 | 55 | 209 | 5.2 | 9.6 | 0.03 | 0.15 | 0.15 | 94 | 1004.9 |
| 20260506213007 | 55 | 190 | 6.1 | 11.3 | 0.05 | 0.15 | 0.15 | 94 | 1004.8 |
| 20260506211503 | 56 | 205 | 5.2 | 9.6 | 0.06 | 0.15 | 0.15 | 94 | 1005.0 |
| 20260506210006 | 56 | 182 | 5.2 | 10.4 | 0.06 | 0.14 | 0.14 | 94 | 1005.1 |
| 20260506204501 | 56 | 153 | 7.0 | 11.3 | 0.04 | 0.12 | 0.12 | 94 | 1005.2 |
| 20260506203122 | 56 | 193 | 4.3 | 10.4 | 0.02 | 0.10 | 0.10 | 93 | 1005.4 |
| 20260506201600 | 56 | 155 | 4.3 | 12.2 | 0.01 | 0.09 | 0.09 | 93 | 1005.4 |
| 20260506194601 | 56 | 204 | 3.5 | 10.4 | 0.01 | 0.08 | 0.08 | 93 | 1005.6 |
| 20260506193105 | 56 | 189 | 3.5 | 12.2 | 0.04 | 0.08 | 0.08 | 93 | 1005.8 |
| 20260506191556 | 56 | 213 | 7.0 | 14.8 | 0.05 | 0.08 | 0.08 | 93 | 1006.0 |
| 20260506190055 | 56 | 213 | 5.2 | 13.9 | 0.06 | 0.08 | 0.08 | 93 | 1006.2 |
| 20260506184555 | 56 | 215 | 4.3 | 13.0 | 0.06 | 0.07 | 0.07 | 92 | 1006.1 |
| 20260506183100 | 56 | 205 | 6.1 | 10.4 | 0.04 | 0.04 | 0.04 | 91 | 1006.4 |
| 20260506181555 | 57 | 162 | 5.2 | 12.2 | 0.03 | 0.03 | 0.03 | 90 | 1006.6 |
| 20260506180051 | 57 | 213 | 5.2 | 9.6 | 0.02 | 0.02 | 0.02 | 89 | 1007.1 |
| 20260506174548 | 58 | 213 | 6.1 | 11.3 | 0.01 | 0.01 | 0.01 | 86 | 1007.4 |
| 20260506173051 | 59 | 193 | 7.0 | 12.2 | 0.00 | 0.00 | 0.00 | 83 | 1007.5 |
| 20260506171546 | 60 | 230 | 8.7 | 14.8 | 0.00 | 0.00 | 0.00 | 80 | 1007.6 |
| 20260506170053 | 60 | 227 | 8.7 | 15.6 | 0.00 | 0.00 | 0.00 | 80 | 1007.9 |
| 20260506164555 | 59 | 223 | 6.1 | 14.8 | 0.00 | 0.00 | 0.00 | 81 | 1008.0 |
| 20260506163051 | 60 | 221 | 8.7 | 17.4 | 0.00 | 0.00 | 0.00 | 80 | 1007.8 |
| 20260506161546 | 61 | 201 | 7.0 | 15.6 | 0.00 | 0.00 | 0.00 | 79 | 1008.1 |
| 20260506160054 | 61 | 215 | 7.0 | 20.0 | 0.00 | 0.00 | 0.00 | 79 | 1008.1 |
| 20260506154544 | 62 | 234 | 4.3 | 11.3 | 0.00 | 0.00 | 0.00 | 78 | 1008.4 |
| 20260506153041 | 62 | 217 | 4.3 | 12.2 | 0.00 | 0.00 | 0.00 | 77 | 1008.4 |
| 20260506151541 | 62 | 207 | 4.3 | 14.8 | 0.00 | 0.00 | 0.00 | 77 | 1008.5 |
| 20260506150049 | 63 | 226 | 7.0 | 14.8 | 0.00 | 0.00 | 0.00 | 75 | 1008.5 |
| 20260506144540 | 62 | 207 | 7.0 | 14.8 | 0.00 | 0.00 | 0.00 | 76 | 1008.5 |
| 20260506143040 | 62 | 232 | 7.0 | 16.5 | 0.00 | 0.00 | 0.00 | 76 | 1008.6 |
| 20260506141542 | 61 | 185 | 3.5 | 14.8 | 0.00 | 0.00 | 0.00 | 78 | 1008.7 |
| 20260506140037 | 61 | 213 | 10.4 | 15.6 | 0.00 | 0.00 | 0.00 | 77 | 1008.6 |
| 20260506134536 | 61 | 225 | 6.1 | 17.4 | 0.00 | 0.00 | 0.00 | 78 | 1008.5 |
| 20260506133042 | 61 | 150 | 8.7 | 14.8 | 0.00 | 0.00 | 0.00 | 77 | 1008.4 |
| 20260506131535 | 61 | 225 | 12.2 | 20.9 | 0.00 | 0.00 | 0.00 | 78 | 1008.3 |
| 20260506130034 | 61 | 207 | 10.4 | 19.1 | 0.00 | 0.00 | 0.00 | 78 | 1008.6 |
| 20260506124531 | 61 | 164 | 5.2 | 13.9 | 0.00 | 0.00 | 0.00 | 79 | 1008.8 |
| 20260506123029 | 60 | 173 | 5.2 | 13.9 | 0.00 | 0.00 | 0.00 | 80 | 1009.0 |
| 20260506121527 | 59 | 212 | 6.1 | 16.5 | 0.00 | 0.00 | 0.00 | 81 | 1008.7 |
| 20260506120047 | 59 | 173 | 5.2 | 12.2 | 0.00 | 0.00 | 0.00 | 83 | 1008.8 |
| 20260506114525 | 59 | 205 | 4.3 | 13.9 | 0.00 | 0.00 | 0.00 | 84 | 1008.9 |
| 20260506113024 | 58 | 187 | 2.6 | 12.2 | 0.00 | 0.00 | 0.00 | 85 | 1008.9 |
| 20260506111523 | 57 | 182 | 5.2 | 11.3 | 0.00 | 0.00 | 0.00 | 86 | 1008.8 |
| 20260506110025 | 57 | 172 | 7.8 | 11.3 | 0.00 | 0.00 | 0.00 | 87 | 1009.0 |
| 20260506104535 | 57 | 205 | 5.2 | 10.4 | 0.00 | 0.00 | 0.00 | 88 | 1009.0 |
| 20260506103036 | 57 | 184 | 3.5 | 8.7 | 0.00 | 0.00 | 0.00 | 88 | 1008.7 |
| 20260506101520 | 56 | 198 | 3.5 | 8.7 | 0.00 | 0.00 | 0.00 | 88 | 1008.7 |
| 20260506100019 | 56 | 202 | 4.3 | 7.8 | 0.00 | 0.00 | 0.00 | 88 | 1008.6 |
| 20260506094518 | 56 | 197 | 4.3 | 7.8 | 0.00 | 0.00 | 0.00 | 88 | 1008.7 |
| 20260506093021 | 56 | 195 | 4.3 | 7.8 | 0.00 | 0.00 | 0.00 | 87 | 1008.7 |
| 20260506091518 | 57 | 193 | 4.3 | 10.4 | 0.00 | 0.00 | 0.00 | 86 | 1008.7 |
| 20260506090015 | 56 | 209 | 4.3 | 7.0 | 0.00 | 0.00 | 0.00 | 86 | 1008.9 |
| 20260506084530 | 56 | 192 | 2.6 | 11.3 | 0.00 | 0.00 | 0.00 | 86 | 1009.1 |
| 20260506083013 | 57 | 217 | 6.1 | 12.2 | 0.00 | 0.00 | 0.00 | 86 | 1009.2 |
| 20260506081512 | 57 | 221 | 6.1 | 13.9 | 0.00 | 0.00 | 0.00 | 85 | 1009.2 |
| 20260506073007 | 58 | 203 | 5.2 | 18.2 | 0.00 | 0.00 | 0.00 | 83 | 1009.2 |
| 20260506071505 | 58 | 220 | 7.8 | 13.9 | 0.00 | 0.00 | 0.00 | 83 | 1009.2 |
| 20260506061558 | 58 | 216 | 2.6 | 11.3 | 0.00 | 0.00 | 0.00 | 81 | 1009.2 |
| 20260506044549 | 59 | 217 | 5.2 | 11.3 | 0.00 | 0.00 | 0.00 | 79 | 1009.7 |
| 20260506043049 | 59 | 199 | 5.2 | 13.9 | 0.00 | 0.00 | 0.00 | 79 | 1009.7 |
| 20260506041556 | 59 | 227 | 6.1 | 15.6 | 0.00 | 0.00 | 0.00 | 79 | 1009.9 |
| 20260506040043 | 59 | 210 | 6.1 | 12.2 | 0.00 | 0.00 | 0.00 | 78 | 1009.8 |
| 20260506034543 | 59 | 175 | 3.5 | 9.6 | 0.00 | 0.00 | 0.00 | 77 | 1009.8 |
| 20260506033041 | 60 | 157 | 7.0 | 13.9 | 0.00 | 0.00 | 0.00 | 76 | 1009.7 |
| 20260506031543 | 60 | 249 | 4.3 | 12.2 | 0.00 | 0.00 | 0.00 | 75 | 1009.7 |
| 20260506030042 | 60 | 217 | 6.1 | 17.4 | 0.00 | 0.00 | 0.00 | 74 | 1009.7 |
| 20260506024541 | 60 | 219 | 6.1 | 12.2 | 0.00 | 0.00 | 0.00 | 73 | 1009.7 |
| 20260506023056 | 60 | 184 | 4.3 | 10.4 | 0.00 | 0.00 | 0.00 | 72 | 1009.7 |
| 20260506021603 | 61 | 190 | 3.5 | 14.8 | 0.00 | 0.00 | 0.00 | 72 | 1009.5 |
| 20260506020039 | 61 | 188 | 4.3 | 11.3 | 0.00 | 0.00 | 0.00 | 71 | 1009.5 |